Weather in Susolovka

Russia / Vologda Oblast     60°48′59″N   47°03′04″E
temp.,
°C
wind,
m/s
gust,
m/s
humid.,
%
clouds,
%
prec.,
mm/h
press.,
hPa
HPBL,
m
28 february, sun
sun2800:00−20n129819 0.0 101220
03:00−21nne119810 0.0 101320
06:00−21n019922 0.0 101320
09:00−17sse019248 0.0 1014114
12:00−11w118476 0.0 1014368
15:00−10nw118488 0.0 1015458
18:00−15wnw119592 0.0 101620
21:00−16sw119783 0.0 101820
1 march, mon
mon100:00−16sw229890 0.0 101825
03:00−17sw229891 0.1 101821
06:00−15ssw239998 0.0 101784
09:00−11ssw379699 0.1 1015235
12:00−6ssw51193100 0.1 1011447
15:00−4sw61295100 0.8 1008670
18:00−4sw51295100 1.3 1003654
21:00−2sw41097100 3.4 1000652
2 march, tue
tue200:00−1sw4998100 2.2 997468
03:000wnw3798100 3.9 995477
06:00−3wnw3993100 0.4 994254
09:00−3nw389575 0.4 995408
12:00−1wnw378894 0.1 995749
15:00−1wnw379197 0.2 996657
18:00−2w3997100 0.3 995524
21:00−3wnw41094100 0.6 996619
3 march, wed
wed300:00−4wnw41095100 0.6 997580
03:00−5nnw71491100 1.3 1000804
06:00−9nnw5139092 0.1 1002569
09:00−9nw4119395 0.1 1004444
12:00−5nw5889100 0.1 1005899
15:00−5wnw4889100 0.4 1005888
18:00−7wnw31093100 0.2 1004558
21:00−9w399598 0.3 1004282
4 march, thu
thu400:00−13sw239964 0.0 100260
03:00−10ssw379681 0.2 999241
06:00−8s41095100 0.7 993425
09:00−6s61394100 1.9 987678
12:000sw51099100 2.8 982722
15:00−2w6128393 4.3 9811173
18:00−4w61390100 0.5 9821101
21:00−6wnw61291100 0.8 9841004